STARLINK-11400 [DTC] (63017 NORAD) Tracking and Keplerian Element Data

This shows tracking and keplerian element data for the satellite.

Feedback or suggestion? Click here.




ElementValue
Catalog63017
NameSTARLINK-11400 [DTC]
Epoch Orbit4971
Epoch Day354.22650068
Epoch Year2025
RAAN314.553
Inclination43.0001
Eccentricity0.0001621
Argument of Perigee271.7343
Mean Anonmoly88.3339
Mean Motion15.70878726
Decay Rate0.00226285
L11 63017U 25032N 25354.22650068 .00226285 00000+0 17166-2 0 9994
L22 63017 43.0001 314.5530 0001621 271.7343 88.3339 15.70878726 49711



Live tracking and technical data element details for STARLINK-11400 [DTC] (NORAD 63017). STARLINK-11400 [DTC] can be tracked NOW for your location showing map with azimuth and elevation plus other details from your city location.







IsCatalogInMostPopularTable: catalog: 63017, numindb: 2
Update: records affected: 1



GetName: 63017 STARLINK-11400 [DTC]

Hit Count: updated at: Sun, 08 Feb 2026 16:58:18 GMT